Location: *
(42.5628°N, 2.3633°E)
Time: 20:12:45
(UTC+00:00)

STARLINK-1233 - Pass Details

Date: 30 March 2020
Orbit: 548 x 551 km, 53.0° (Epoch: 31 May)

Event Time Altitude Azimuth Distance (km) Brightness Sun altitude
Rises 18:24:21 0° 258° (WSW) 2,642 8.7 -2.6°
Reaches altitude 10° 18:26:41 10° 268° (W) 1,755 8.0 -3.0°
Maximum altitude 18:30:21 35° 335° (NNW) 863 5.0 -3.7°
Drops below altitude 10° 18:34:02 10° 42° (NE) 1,761 5.9 -4.4°
Enters shadow 18:37:20 -3° 54° (NE) 3,023 7.0 -5.0°
